TimePDT,TemperatureF,Dew PointF,Humidity,Sea Level PressureIn,VisibilityMPH,Wind Direction,Wind SpeedMPH,Gust SpeedMPH,PrecipitationIn,Events,Conditions,WindDirDegrees,DateUTC
12:52 AM,64.9,54.0,68,29.92,10.0,East,3.5,-,N/A,,Clear,80,2013-08-17 07:52:00
1:52 AM,66.9,57.0,70,29.92,10.0,Calm,Calm,-,N/A,,Clear,0,2013-08-17 08:52:00
2:52 AM,64.9,57.0,75,29.92,10.0,ESE,4.6,-,N/A,,Clear,120,2013-08-17 09:52:00
3:52 AM,63.0,57.0,81,29.94,10.0,Calm,Calm,-,N/A,,Clear,0,2013-08-17 10:52:00
4:52 AM,57.0,53.1,87,29.94,10.0,Calm,Calm,-,N/A,,Clear,0,2013-08-17 11:52:00
5:52 AM,55.9,53.1,90,29.95,10.0,North,3.5,-,N/A,,Clear,10,2013-08-17 12:52:00
6:52 AM,59.0,53.1,81,29.97,10.0,Calm,Calm,-,N/A,,Clear,0,2013-08-17 13:52:00
7:52 AM,64.9,57.0,75,29.97,10.0,Calm,Calm,-,N/A,,Clear,0,2013-08-17 14:52:00
8:52 AM,71.1,57.9,63,29.97,10.0,Calm,Calm,-,N/A,,Clear,0,2013-08-17 15:52:00
9:52 AM,75.9,57.0,52,29.97,10.0,SW,3.5,-,N/A,,Clear,220,2013-08-17 16:52:00
10:52 AM,81.0,52.0,36,29.97,10.0,SSW,6.9,-,N/A,,Clear,200,2013-08-17 17:52:00
11:52 AM,84.0,53.1,34,29.96,10.0,SW,5.8,-,N/A,,Clear,230,2013-08-17 18:52:00
12:52 PM,88.0,52.0,29,29.94,10.0,SSW,11.5,-,N/A,,Clear,210,2013-08-17 19:52:00
1:52 PM,89.1,50.0,26,29.92,10.0,SSW,13.8,19.6,N/A,,Clear,210,2013-08-17 20:52:00
2:52 PM,87.1,48.9,27,29.91,10.0,West,10.4,-,N/A,,Clear,260,2013-08-17 21:52:00
3:52 PM,87.1,50.0,28,29.90,10.0,West,9.2,-,N/A,,Clear,260,2013-08-17 22:52:00
4:52 PM,86.0,51.1,30,29.90,10.0,West,9.2,-,N/A,,Clear,280,2013-08-17 23:52:00
5:52 PM,88.0,48.9,26,29.89,10.0,West,11.5,-,N/A,,Clear,270,2013-08-18 00:52:00
6:52 PM,86.0,48.9,28,29.89,10.0,West,9.2,-,N/A,,Clear,260,2013-08-18 01:52:00
7:52 PM,82.0,52.0,35,29.89,10.0,WSW,4.6,-,N/A,,Clear,250,2013-08-18 02:52:00
8:52 PM,73.0,46.0,38,29.91,10.0,NW,6.9,-,N/A,,Clear,320,2013-08-18 03:52:00
9:52 PM,72.0,45.0,38,29.93,10.0,West,4.6,-,N/A,,Clear,280,2013-08-18 04:52:00
10:52 PM,71.1,48.9,45,29.94,10.0,SSW,3.5,-,N/A,,Clear,200,2013-08-18 05:52:00
11:52 PM,69.1,48.9,49,29.95,10.0,WSW,8.1,-,N/A,,Clear,240,2013-08-18 06:52:00